Location: Aufkirchen
(47.9603°N, 11.3653°E)
Time: 15:46:47
(UTC+01:00)

Courier 1B Rocket - Pass Details

Date: 01 December 2020
Orbit: 920 x 1202 km, 28.2° (Epoch: 17 January)

Event Time Altitude Azimuth Distance (km) Brightness Sun altitude
Exits shadow 04:47:31 - 198° (SSW) 3,442 7.7 -28.6°
Reaches altitude 10° 04:49:40 10° 184° (S) 3,124 7.6 -28.3°
Maximum altitude 04:52:24 12° 163° (SSE) 2,964 7.7 -27.8°
Drops below altitude 10° 04:55:09 10° 142° (SE) 3,122 8.1 -27.4°
Sets 05:00:12 0° 115° (ESE) 4,063 9.3 -26.5°
